[[{"header":{"parameterUnit":"m.s-1","parameterCategory":1,"la1":30.2991,"la2":30.254,"lo1":-89.0895,"lo2":-89.0444,"dy":0.0017,"dx":0.0017,"nx":28,"ny":28,"refTime":"2025-06-02T09:00:00:Z","depth":0,"parameterNumber":2,"parameterNumberName":"U-component_of_WINDS"},"data":[0,0,0,0,0,0,0,0,0,0,0,0,0,0,0,0,0,0,0,0,0,0,0,0,0,0,0,0,0,0,0,0,0,0,0,0,0,0,0,0,0,0,0,0,0,0,0,0,0,0,0,0,0,0,0,0,0,0,-5.33,-5.33,0,-5.3327,-5.3327,-5.3327,-5.3246,-5.3244,-5.3241,-5.3239,-5.3268,-5.3271,-5.3274,0,0,0,0,0,0,0,0,0,0,0,0,0,-5.318,-5.3183,-5.33,-5.33,-5.33,-5.3327,-5.3327,-5.3328,-5.3247,-5.3244,-5.3241,-5.3238,-5.3267,-5.327,-5.3274,0,0,0,0,0,0,0,0,0,0,0,0,0,-5.3222,-5.3183,-5.33,-5.3263,-5.326,-5.3327,-5.3327,-5.3328,-5.3247,-5.3243,-5.324,-5.3236,-5.3266,-5.327,-5.3275,-5.3378,0,0,-5.3289,-5.3291,0,0,0,0,0,0,0,0,-5.322,-5.3227,-5.3268,-5.3266,-5.3262,-5.3279,-5.3296,-5.3345,-5.3248,-5.3252,-5.3239,-5.3234,-5.3275,-5.3278,-5.3292,-5.338,-5.3381,-5.3289,-5.3292,-5.3294,-5.3295,0,0,0,0,0,0,0,-5.3217,-5.3225,-5.331,-5.3269,-5.3265,-5.3246,-5.3248,-5.3305,-5.3284,-5.3252,-5.3246,-5.325,-5.3272,-5.3287,-5.3292,-5.3381,-5.3289,-5.3293,-5.3296,-5.3298,-5.3556,-5.356,0,0,0,0,0,0,-5.3219,-5.3223,-5.3309,-5.3311,-5.3231,-5.3251,-5.3253,-5.3278,-5.3283,-5.3281,-5.3253,-5.3246,-5.3281,-5.3286,-5.3293,-5.3413,-5.3294,-5.3298,-5.3301,-5.3552,-5.3557,-5.3562,0,0,0,0,0,0,-5.3216,-5.3227,-5.3308,-5.3266,-5.3274,-5.3257,-5.3285,-5.328,-5.3295,-5.3284,-5.3281,-5.3272,-5.3279,-5.3286,-5.3358,-5.3413,-5.3301,-5.3305,-5.3548,-5.3554,-5.356,-5.3657,0,0,0,0,0,0,-5.3213,-5.3227,-5.3265,-5.3267,-5.3277,-5.3372,-5.3289,-5.3283,-5.3303,-5.3294,-5.3301,-5.3299,-5.3276,-5.3351,-5.3362,-5.3418,-5.3308,-5.3542,-5.355,-5.3558,-5.3648,-5.3665,-5.368,0,0,0,0,0,-5.3209,-5.3291,-5.3267,-5.3278,-5.3324,-5.3376,-5.3381,-5.3353,-5.3308,-5.3346,-5.334,-5.3298,-5.3407,-5.3359,-5.3371,-5.3429,-5.3539,-5.3548,-5.3557,-5.3641,-5.3662,-5.3679,0,0,0,0,0,0,-5.3296,-5.3291,-5.3264,-5.3349,-5.3364,-5.3362,-5.3409,-5.3376,-5.3404,-5.3394,-5.336,-5.3362,-5.344,-5.3442,-5.3389,-5.353,-5.3465,-5.3477,-5.3525,-5.3544,-5.356,-5.3556,-5.3312,0,0,0,0,0,-5.3325,-5.3366,-5.336,-5.3436,-5.3445,-5.3426,-5.3448,-5.3425,-5.3439,-5.3444,-5.3443,-5.3458,-5.3496,-5.3521,-5.3554,-5.365,-5.365,-5.3696,-5.3711,-5.3724,-5.3734,-5.3785,-5.3805,-5.3592,-5.3592,-5.3592,0,0,-5.3385,-5.3387,-5.3416,-5.3453,-5.3462,-5.3506,-5.3432,-5.3481,-5.3514,-5.3452,-5.3518,-5.3519,-5.3534,-5.3618,-5.3655,-5.3622,-5.3794,-5.3736,-5.3747,-5.3749,-5.3796,-5.3817,-5.3834,-5.3598,-5.3597,-5.3596,0,0,-5.3516,-5.3523,-5.3586,-5.3597,-5.3611,-5.3599,-5.3615,-5.3619,-5.3616,-5.3683,-5.3638,-5.3678,-5.3743,-5.3755,-5.377,-5.391,-5.3872,-5.3923,-5.4003,-5.4053,-5.407,-5.4085,-5.4133,-5.4152,-5.3933,-5.3933,-5.3934,0,-5.3589,-5.3652,-5.3623,-5.3676,-5.3694,-5.3642,-5.3706,-5.3718,-5.3743,-5.3757,-5.3721,-5.3802,-5.3808,-5.3894,-5.3929,-5.3943,-5.396,-5.3919,-5.407,-5.4085,-5.4098,-5.4144,-5.4162,-5.3939,-5.3938,-5.3938,-5.3937,0,-5.3741,-5.3786,-5.3836,-5.3861,-5.3886,-5.3945,-5.3925,-5.3954,-5.3931,-5.3923,-5.3993,-5.3999,-5.4033,-5.4053,-5.4031,-5.4137,-5.4116,-5.4076,-5.4009,-5.4124,-5.4167,-5.4184,-5.3947,-5.3945,-5.3944,-5.3942,0,0,-5.3923,-5.3933,-5.3952,-5.3963,-5.3977,-5.4011,-5.4069,-5.4103,-5.4127,-5.4148,-5.4195,-5.4253,-5.4216,-5.4233,-5.4213,-5.4257,-5.4367,-5.4211,-5.4211,-5.4238,-5.4483,-5.4511,-5.4532,-5.4344,-5.4347,-5.435,-5.4481,0,-5.4051,-5.4147,-5.4124,-5.4221,-5.4262,-5.4215,-5.4265,-5.428,-5.4275,-5.4311,-5.4306,-5.4347,-5.4296,-5.4306,-5.4349,-5.4345,-5.4415,-5.4335,-5.4386,-5.4389,-5.4381,-5.4554,-5.4584,-5.4707,-5.4498,-5.4501,-5.4503,0,-5.4211,-5.4238,-5.4338,-5.4346,-5.4363,-5.4408,-5.4437,-5.4473,-5.4489,-5.4483,-5.4504,-5.4475,-5.4533,-5.4469,-5.4549,-5.4495,-5.4516,-5.4518,-5.4522,-5.4522,-5.445,-5.4558,-5.4746,-5.4764,-5.4529,-5.4527,-5.4525,0,-5.4332,-5.4393,-5.4461,-5.4472,-5.4484,-5.4517,-5.4523,-5.4536,-5.4558,-5.4585,-5.4599,-5.4633,-5.4651,-5.4679,-5.4661,-5.4616,-5.4743,-5.4678,-5.4739,-5.474,-5.4765,-5.4763,-5.4956,-5.4784,-5.4783,-5.4783,-5.4782,0,-5.4475,-5.4538,-5.4515,-5.4556,-5.4626,-5.4601,-5.4671,-5.4672,-5.4684,-5.4726,-5.4689,-5.4729,-5.4704,-5.4743,-5.473,-5.4797,-5.4806,-5.4803,-5.4798,-5.4804,-5.4804,-5.4814,-5.4804,-5.4788,-5.4787,-5.4786,-5.4785,0,-5.4619,-5.4607,-5.4677,-5.4683,-5.4687,-5.4738,-5.4743,-5.4782,-5.4776,-5.4829,-5.4841,-5.4832,-5.4875,-5.4861,-5.4909,-5.49,-5.4985,-5.4971,-5.4979,-5.4974,-5.5036,-5.5029,-5.524,-5.5266,-5.5079,-5.5081,-5.5082,0,-5.471,-5.4757,-5.4768,-5.4793,-5.4803,-5.4844,-5.4866,-5.4845,-5.487,-5.4894,-5.4931,-5.4971,-5.5002,-5.5074,-5.5072,-5.5109,-5.5094,-5.5165,-5.5098,-5.5104,-5.5092,-5.5088,-5.5093,-5.5177,-5.5179,-5.5181,-5.5183,0,-5.4871,-5.4863,-5.4897,-5.493,-5.4958,-5.4983,-5.5005,-5.5028,-5.5008,-5.5039,-5.5083,-5.5107,-5.5156,-5.5197,-5.523,-5.5238,-5.5207,-5.5204,-5.522,-5.5225,-5.5227,-5.5225,-5.5012,-5.5198,-5.5197,-5.5196,-5.5195,-5.5194,-5.4989,-5.5029,-5.5044,-5.5083,-5.5098,-5.512,-5.5157,-5.5156,-5.5193,-5.523,-5.5216,-5.5267,-5.5284,-5.5326,-5.5339,-5.5379,-5.5351,-5.5375,-5.538,-5.5385,-5.5392,-5.5224,-5.5385,-5.5385,-5.5385,-5.5384,-5.5384,0,-5.5147,-5.5155,-5.5192,-5.5223,-5.5255,-5.5225,-5.5248,-5.5277,-5.5321,-5.534,-5.5372,-5.5424,-5.5464,-5.5467,-5.5505,-5.5536,-5.5523,-5.5547,-5.5542,-5.5545,-5.5415,-5.5397,-5.5557,-5.5557,-5.5557,-5.5557,-5.5557,-5.5556,-5.5232,-5.5298,-5.5292,-5.5366,-5.5373,-5.5422,-5.5438,-5.5458,-5.5473,-5.5532,-5.5565,-5.5567,-5.558,-5.5619,-5.5655,-5.5655,-5.567,-5.5698,-5.5693,-5.5571,-5.5554,-5.5537,-5.552,-5.5702,-5.5703,-5.5818,-5.5819,-5.582]},{"header":{"parameterUnit":"m.s-1","parameterCategory":1,"la1":30.2991,"la2":30.254,"lo1":-89.0895,"lo2":-89.0444,"dy":0.0017,"dx":0.0017,"nx":28,"ny":28,"refTime":"2025-06-02T09:00:00:Z","depth":0,"parameterNumber":3,"parameterNumberName":"V-component_of_WINDS"},"data":[0,0,0,0,0,0,0,0,0,0,0,0,0,0,0,0,0,0,0,0,0,0,0,0,0,0,0,0,0,0,0,0,0,0,0,0,0,0,0,0,0,0,0,0,0,0,0,0,0,0,0,0,0,0,0,0,0,0,3.0345,3.0346,0,3.0393,3.0394,3.0394,3.047,3.0471,3.0473,3.0474,3.0518,3.0518,3.0518,0,0,0,0,0,0,0,0,0,0,0,0,0,3.0315,3.0315,3.0345,3.0346,3.0346,3.0393,3.0394,3.0395,3.047,3.0471,3.0473,3.0475,3.0518,3.0518,3.0518,0,0,0,0,0,0,0,0,0,0,0,0,0,3.0342,3.0315,3.0345,3.039,3.0394,3.0393,3.0394,3.0395,3.0469,3.0471,3.0473,3.0475,3.0519,3.0518,3.0518,3.0476,0,0,3.0518,3.0518,0,0,0,0,0,0,0,0,3.034,3.0343,3.0382,3.0387,3.0392,3.0428,3.04,3.0422,3.0469,3.0441,3.0474,3.0476,3.0486,3.0489,3.0493,3.0478,3.048,3.0518,3.0518,3.0518,3.0518,0,0,0,0,0,0,0,3.0338,3.0341,3.0364,3.0383,3.0388,3.0406,3.0412,3.0404,3.0451,3.0443,3.0449,3.0454,3.0489,3.0493,3.0495,3.0481,3.0518,3.0518,3.0518,3.0518,3.0434,3.0432,0,0,0,0,0,0,3.033,3.0339,3.0363,3.0366,3.0371,3.0405,3.0412,3.0414,3.0451,3.0459,3.0452,3.0457,3.0492,3.0495,3.0497,3.045,3.0518,3.0517,3.0517,3.0436,3.0433,3.0431,0,0,0,0,0,0,3.0329,3.0332,3.0361,3.0354,3.0359,3.0403,3.0405,3.0414,3.0418,3.0458,3.0466,3.0448,3.0494,3.0497,3.0481,3.0453,3.0517,3.0517,3.0438,3.0435,3.0432,3.0356,0,0,0,0,0,0,3.0328,3.0331,3.0316,3.0353,3.0359,3.0345,3.0403,3.0413,3.0418,3.0425,3.0456,3.0463,3.0496,3.0481,3.0481,3.0454,3.0517,3.0441,3.0437,3.0433,3.0361,3.0351,3.0342,0,0,0,0,0,3.0327,3.0291,3.0315,3.0317,3.0342,3.0343,3.0347,3.0386,3.0416,3.0401,3.0427,3.0462,3.0456,3.0479,3.0479,3.0452,3.0443,3.0438,3.0434,3.0366,3.0353,3.0342,0,0,0,0,0,0,3.0248,3.0297,3.0323,3.0299,3.0317,3.0356,3.0338,3.0371,3.0379,3.0385,3.0433,3.0439,3.0417,3.0433,3.0457,3.0413,3.0455,3.045,3.0403,3.0391,3.0382,3.0378,3.0517,0,0,0,0,0,3.0228,3.0227,3.0269,3.0244,3.0251,3.0293,3.0295,3.0325,3.0344,3.0351,3.0376,3.0392,3.0394,3.0393,3.0397,3.0364,3.0372,3.0346,3.0336,3.0328,3.0322,3.0306,3.0295,3.0415,3.0415,3.0415,0,0,3.0186,3.0213,3.0209,3.0229,3.0246,3.0242,3.0299,3.0292,3.029,3.0349,3.0337,3.0355,3.0376,3.0352,3.0342,3.0364,3.0291,3.0321,3.0314,3.0314,3.03,3.0289,3.0279,3.0412,3.0413,3.0413,0,0,3.0108,3.0129,3.011,3.0127,3.0152,3.0181,3.0176,3.0211,3.0226,3.0214,3.0259,3.0256,3.0258,3.0272,3.0278,3.0207,3.024,3.0207,3.0155,3.0139,3.0129,3.0121,3.0095,3.0086,3.0202,3.0202,3.0202,0,3.0053,3.0051,3.0096,3.0087,3.0095,3.0151,3.0132,3.0145,3.0169,3.0172,3.0197,3.0202,3.022,3.02,3.0182,3.0186,3.0182,3.0203,3.0127,3.012,3.0113,3.0088,3.0079,3.0197,3.0198,3.0198,3.0199,0,2.9981,2.9979,2.9961,2.9985,2.999,2.9976,3.0019,3.0018,3.0047,3.0072,3.006,3.0084,3.0093,3.0091,3.0118,3.0074,3.0087,3.0119,3.0162,3.0096,3.0074,3.0065,3.0191,3.0193,3.0194,3.0195,0,0,2.9854,2.9905,2.9897,2.991,2.9943,2.9941,2.993,2.9941,2.994,2.9955,2.9946,2.9947,2.9977,2.9985,3.0014,3.0,2.9942,3.0034,3.0035,3.0016,2.9895,2.987,2.9859,2.9965,2.9963,2.9962,2.9893,0,2.9782,2.9767,2.9808,2.9782,2.978,2.9834,2.9824,2.9842,2.9866,2.9867,2.9893,2.9893,2.9932,2.9937,2.9926,2.9951,2.9918,2.9957,2.9956,2.9955,2.9948,2.9848,2.9822,2.9756,2.9885,2.9883,2.9882,0,2.9697,2.971,2.9684,2.972,2.9721,2.9711,2.9725,2.9726,2.9748,2.9766,2.9775,2.981,2.98,2.9843,2.9829,2.9855,2.9856,2.9869,2.9867,2.9868,2.9914,2.9845,2.9736,2.9725,2.9869,2.987,2.9871,0,2.9607,2.9617,2.9604,2.9613,2.9653,2.9645,2.9662,2.9686,2.9691,2.9702,2.9706,2.9715,2.972,2.9727,2.9763,2.9791,2.9745,2.979,2.9759,2.9758,2.9746,2.9746,2.9635,2.9748,2.9748,2.9748,2.9749,0,2.9522,2.9504,2.9564,2.9555,2.9537,2.9584,2.9563,2.9585,2.9606,2.9602,2.9648,2.9643,2.9692,2.9692,2.972,2.9705,2.9706,2.972,2.9728,2.9716,2.9714,2.9717,2.9722,2.9746,2.9746,2.9747,2.9747,0,2.9418,2.9457,2.9446,2.9486,2.9496,2.9481,2.9515,2.9508,2.9535,2.9529,2.953,2.9572,2.9574,2.9611,2.9621,2.964,2.9612,2.9629,2.9605,2.9611,2.9577,2.9579,2.9463,2.945,2.9572,2.957,2.9569,0,2.9361,2.9349,2.9389,2.9391,2.9405,2.9407,2.9412,2.9458,2.9461,2.9486,2.9476,2.9482,2.949,2.949,2.952,2.9528,2.9545,2.9503,2.9546,2.9534,2.9543,2.9544,2.9542,2.9494,2.9492,2.9491,2.949,0,2.9257,2.9278,2.9285,2.9298,2.9304,2.9317,2.9332,2.933,2.938,2.9381,2.9385,2.9391,2.9402,2.9407,2.9421,2.9436,2.9471,2.9477,2.947,2.9457,2.9444,2.945,2.958,2.9479,2.948,2.9481,2.9481,2.9482,2.9175,2.9167,2.9194,2.92,2.9217,2.923,2.9226,2.9254,2.9258,2.9272,2.9298,2.9298,2.932,2.9342,2.9354,2.9354,2.9375,2.9365,2.9362,2.9359,2.9352,2.9444,2.9356,2.9357,2.9357,2.9357,2.9358,0,2.9073,2.9094,2.9099,2.912,2.9125,2.9159,2.9178,2.9179,2.9179,2.9198,2.9205,2.9209,2.9215,2.9246,2.9255,2.9248,2.9264,2.9249,2.9249,2.9252,2.9333,2.9338,2.9236,2.9236,2.9236,2.9236,2.9236,2.9236,2.902,2.9009,2.9032,2.9029,2.905,2.9051,2.9059,2.9071,2.9087,2.909,2.9095,2.9117,2.914,2.9151,2.9157,2.9166,2.9167,2.9146,2.916,2.9235,2.9247,2.9258,2.9263,2.9146,2.9146,2.908,2.9079,2.9079]}]]